Location: Proctor
(47.8934°N, 114.3048°W)
Time: 21:50:21
(UTC+00:00)

Tiros 1 despin weight - Pass Details

Date: 25 June 2024
Orbit: 576 x 620 km, 48.2° (Epoch: 19 July)

Event Time Altitude Azimuth Distance (km) Brightness Sun altitude
Rises 00:42:49 0° 284° (WNW) 2,895 ? 26.5°
Reaches altitude 10° 00:45:24 10° 272° (W) 1,983 ? 26.1°
Maximum altitude 00:49:13 27° 215° (SW) 1,197 ? 25.4°
Drops below altitude 10° 00:52:59 10° 158° (SSE) 1,957 ? 24.8°
Sets 00:55:32 0° 146° (SSE) 2,850 ? 24.4°
